Content
SEND FEEDBACK

Daily
Averages
Monthly
Summary
Canada

YELLOWKNIFE, NORTHWEST TERRITORIES


Home > North America > Canada > Northwest Territories
Elevation: 676 feet     Latitude: 62 28N     Longitude: 114 27W

WEATHER
 
SELECT A DAY
Number of Records: 194,033;   Date Range: 1/1/95 - 10/22/14
 
SHARE

PRINT THIS DATA

[ ← Previous Day ]
WEATHER ALMANAC - FEBRUARY 4, 2013
[ Next Day → ]
[ °C ]   °F
Weather ElementAverageHighLow
Temperature-15 °F-9.4 °F (3:00 pm)-22 °F (1:00 am)
Dewpoint-21 °F-14.8 °F (3:00 pm)-29.2 °F (1:00 am)
Humidity72.7 %77 % (11:00 am)63 % (5:00 am)
Barometer29.99 in30.10 in (11:00 pm)29.90 in (5:00 am)
Wind Speed9.6 mph12.7 mph (8:00 am)
Weather ElementAverage
Visibility15 mi
Wind DirectionENE (69.2 °)

Weather ElementTotal
Precipitation---
Heating Degree Days80.7 (Base 65)
Averaged from 26 records on February 4, 2013
WEATHER CONDITIONS BREAKOUT
WIND DIRECTION BREAKOUT
WEATHER BY HOUR - FEBRUARY 4, 2013
[ °C ]   °F
Local TimeTemperatureDewpointHumidityBarometerVisibilityWind DirectionWind SpeedGust SpeedPrecipitationEventsConditions
1:00 AM-22.0 °F-29.2 °F69 %29.94 in15.0 miEast (80°)8.1 mphOvercast
2:00 AM-20.2 °F-27.4 °F69 %29.92 in15.0 miEast (90°)8.1 mphOvercast
4:00 AM-18.4 °F-25.6 °F70 %29.91 in15.0 miEast (80°)9.2 mphOvercast
5:00 AM-18.0 °F-23.0 °F63 %29.91 in15.0 miEast (80°)9.2 mphOvercast
5:00 AM-18.4 °F-23.8 °F76 %29.90 in15.0 miEast (80°)9.2 mphOvercast
6:00 AM-16.6 °F-23.8 °F70 %29.91 in15.0 miENE (70°)11.5 mphOvercast
7:00 AM-16.6 °F-23.8 °F70 %29.91 in15.0 miENE (70°)8.1 mphOvercast
8:00 AM-18.4 °F-23.8 °F76 %29.92 in15.0 miENE (70°)12.7 mphMostly Cloudy
9:00 AM-18.4 °F-23.8 °F76 %29.93 in15.0 miENE (70°)9.2 mphMostly Cloudy
10:00 AM-18.4 °F-23.8 °F76 %29.94 in15.0 miEast (80°)10.4 mphMostly Cloudy
11:00 AM-16.0 °F-21.0 °F66 %29.95 in15.0 miENE (70°)8.1 mphMostly Cloudy
11:00 AM-14.8 °F-20.2 °F77 %29.95 in15.0 miENE (70°)8.1 mphMostly Cloudy
12:00 PM-14.8 °F-20.2 °F77 %29.96 in15.0 miENE (70°)9.2 mphOvercast
1:00 PM-13.0 °F-18.4 °F77 %29.98 in15.0 miENE (70°)10.4 mphMostly Cloudy
2:00 PM-11.2 °F-16.6 °F77 %29.99 in15.0 miENE (70°)8.1 mphOvercast
3:00 PM-9.4 °F-14.8 °F77 %29.99 in15.0 miENE (70°)10.4 mphOvercast
4:00 PM-9.4 °F-14.8 °F77 %30.01 in15.0 miENE (70°)12.7 mphOvercast
5:00 PM-10.0 °F-16.0 °F65 %30.04 in15.0 miENE (60°)10.4 mphScattered Clouds
5:00 PM-9.4 °F-14.8 °F77 %30.04 in15.0 miENE (60°)9.2 mphMostly Cloudy
6:00 PM-11.2 °F-16.6 °F77 %30.05 in15.0 miENE (60°)9.2 mphMostly Cloudy
7:00 PM-13.0 °F-18.4 °F77 %30.07 in15.0 miNE (50°)9.2 mphPartly Cloudy
8:00 PM-13.0 °F-20.2 °F70 %30.07 in15.0 miENE (60°)11.5 mphPartly Cloudy
9:00 PM-14.8 °F-20.2 °F77 %30.08 in15.0 miENE (60°)11.5 mphOvercast
10:00 PM-14.8 °F-22.0 °F70 %30.09 in15.0 miENE (60°)8.1 mphMostly Cloudy
11:00 PM-16.0 °F-22.0 °F63 %30.10 in15.0 miENE (60°)9.2 mphOvercast
11:00 PM-14.8 °F-22.0 °F70 %30.10 in15.0 miENE (70°)9.2 mphOvercast
Hourly data recorded from CYZF, located miles away from Yellowknife, Northwest Territories







STORIES FROM OUR PARTNERS